Tracking 29594 objects as of 20-Sep-2024
HD Live streaming from Space Station
objects crossing your sky now

FENGYUN 1C DEB

Track FENGYUN 1C DEB now!
10-day predictions


NORAD ID: 35204
Int'l Code: 1999-025DPL
Perigee: 743.7 km
Apogee: 813.0 km
Inclination: 99.0 °
Period: 100.3 minutes
Semi major axis: 7149 km
RCS: 0.0049 m2 (small)
Launch date: May 10, 1999
Source: People's Republic of China (PRC)
Launch site: Taiyaun Space Center, China (TSC)

Note: This is SATELLITE DEBRIS
Your satellite tracking list
Your tracking list is empty




NASA's NSSDC Master Catalog

Two Line Element Set (TLE):
1 35204U 99025DPL 24261.90249476  .00026455  00000-0  89361-2 0  9996
2 35204  98.9954  58.5529 0048494 224.3495 290.4760 14.36163449845390
Source of the keplerian elements: AFSPC